Home   Weather   Göttingen   Past weeks

Flag for Germany Past Weather in Göttingen, Lower Saxony, Germany — Yesterday and Last 2 Weeks

Now
41 °F

Fog.


Feels Like: 41 °F
Forecast: 53 / 68 °F
Wind: 2 mph from East

Location: Fritzlar Airport

Current Time: Sep 25, 2016 at 7:38:10 AM

Latest Report: Sep 25, 2016 at 6:20 AM


Visibility: 0 mi

Pressure: 30.15 "Hg

Humidity: 93%

Dew Point: 39 °F

Location of GöttingenLocation

Past Weather in Göttingen — Graph

°F

Göttingen Temperature Yesterday

Maximum temperature yesterday: 72 °F (at 2:20 PM)
Minimum temperature yesterday: 45 °F (at 4:45 AM)
Average temperature yesterday: 55 °F

High & Low Weather Summary for the Past Weeks

 TemperatureHumidityPressure
High88 °F (Sep 12, 3:20 PM)100% (Sep 11, 7:20 AM)30.33 "Hg (Sep 11, 7:20 AM)
Low39 °F (Sep 22, 6:03 AM)31% (Sep 13, 4:20 PM)29.83 "Hg (Sep 15, 4:20 PM)
Average62 °F72%30.06 "Hg
* Reported Sep 10 6:20 AM — Sep 25 6:20 AM, Göttingen, Weather by CustomWeather, © 2016

Note: Actual official high and low records may vary slightly from our data, if they occured in-between our weather recording intervals... More about our weather records

Advertising

Göttingen Weather History for the Previous 24 Hours

Scroll right to see more
 ConditionsComfort  
Time TempWeatherWind HumidityBarometerVisibility
6:20 AM
Sun, Sep 25
41 °FFog.2 mph93%30.15 "Hg1 mi
6:04 AM39 °FFog.1 mph100%30.15 "Hg1 mi
5:20 AM43 °FFog.2 mph100%30.15 "Hg4 mi
4:20 AM46 °FPassing clouds.3 mph93%30.15 "HgN/A
3:20 AM46 °FPassing clouds.2 mph93%30.18 "HgN/A
2:20 AM48 °FPassing clouds.3 mph87%30.18 "HgN/A
1:20 AM48 °FPassing clouds.2 mph94%30.18 "HgN/A
12:20 AM50 °FPassing clouds.2 mph88%30.18 "HgN/A
11:20 PM
Sat, Sep 24
50 °FPassing clouds.2 mph94%30.21 "HgN/A
10:20 PM52 °FPassing clouds.2 mph88%30.21 "HgN/A
9:20 PM54 °FPassing clouds.1 mph88%30.21 "HgN/A
8:20 PM57 °FPassing clouds.3 mph77%30.21 "HgN/A
7:20 PM63 °FPassing clouds.2 mph59%30.21 "HgN/A
6:20 PM70 °FPartly sunny.5 mph46%30.21 "HgN/A
5:20 PM72 °FPartly sunny.9 mph41%30.21 "HgN/A
4:20 PM72 °FPartly sunny.9 mph41%30.24 "HgN/A
3:20 PM72 °FPassing clouds.10 mph41%30.24 "HgN/A
2:20 PM72 °FScattered clouds.8 mph47%30.27 "HgN/A
1:20 PM70 °FPassing clouds.7 mph53%30.27 "HgN/A
12:20 PM66 °FScattered clouds.8 mph60%30.30 "HgN/A
11:20 AM59 °FPassing clouds.5 mph77%30.30 "HgN/A
10:20 AM50 °FFog.2 mph100%30.33 "Hg1 mi
9:20 AM48 °FFog.No wind100%30.33 "Hg0 mi
8:20 AM48 °FFog.1 mph94%30.33 "Hg0 mi
7:45 AM46 °FFog.2 mph93%30.30 "Hg0 mi
7:20 AM46 °FFog.1 mph100%30.30 "Hg1 mi
Weather by CustomWeather, © 2016

See weather overviewHow to use our weather pages